www.pogodaiklimat.ru

Погода и климат >> Архив погоды >> Россия >> Еврейская автономная область >> Биробиджан


ПОГОДА в Биробиджане

  • Прогноз погоды в Биробиджане
  • Монитор погоды в Биробиджане

АРХИВ ПОГОДЫ в Биробиджане

Время (UTC), дата Ветер
(напр.,м/с)
 
Видим.   Явления Облачность Т
(С)
Тd
(С)
f
(%)
Тe
(С)
Тes
(С)
Комфортность P
(гПа)
Po
(гПа)
Тmin
(С)
Tmax
(С)
R
(мм)
R24
(мм)
S
(см)
00 16.04 ЮВ 2 10 км 3/0
[Ac trans]
+8.7 -0.3 53 +7 +14 1002.4 992.7
03 16.04 ЮВ 3 20 км 1/0
[Ci fib]
+18.0 -0.1 29 +18 +30 опасность
простуды
999.0 989.7
06 16.04 Ю 6-13
{13}
20 км 5/0
[Ac lent Ci]
+21.3 -2.3 20 +21 +23 комфорт 995.3 986.1
09 16.04 Ю 3
{13}
10 км 9/6 600 м
[Cb cap Ac trans]
+18.9 +1.4 31 +19 +19 993.6 984.3 +21.4
12 16.04 СЗ 3 10 км 10/8 600 м
[Cb cap Ac trans]
+17.4 -3.8 23 +17 +17 996.7 987.4
15 16.04 С 2
{10}
10 км 10/8 600 м
[Cb cap As trans]
+10.5 -6.9 29 +10 +10 1000.8 991.2
18 16.04 С 4 10 км 9/4 600 м
[Cb cap Ac trans]
+8.1 -9.3 28 +6 +6 1003.4 993.7
21 16.04 СЗ 3 50 км 9/0
[Ac trans Cc]
+6.4 -11.3 27 +4 +4 1004.9 995.1 +6.1
00 17.04 С 2 50 км 10/0
[As trans]
+9.5 -12.0 21 +9 +12 1005.6 995.9
03 17.04 В 2 50 км 10/0
[As trans]
+12.0 -11.7 18 +12 +17 1004.1 994.5
06 17.04 В 2 50 км 10/0
[Cs]
+13.7 -9.5 19 +14 +21 1001.4 991.9
09 17.04 СВ 2 20 км 9/3 600 м
[Cb cap Cs]
+12.7 -7.0 25 +12 +13 998.8 989.3 +14.1
12 17.04 С 1 20 км 10/0
[As trans]
+8.1 -7.0 34 +8 +8 997.7 988.1
15 17.04 С 1 20 км 10/0
[As trans]
+6.1 -7.2 38 +6 +6 995.5 985.9
18 17.04 СВ 1 20 км 10/0
[As op]
+6.6 -6.3 39 +6 +6 992.6 983.0
21 17.04 В 1 н/о н/о +5.5 -4.9 47 +5 +5 991.8 982.2 +5.5
00 18.04 СЗ 1 2000 м ливневой дождь 10/10 600 м
[Cb cap]
+3.4 +1.8 89 +2 +2 992.2 982.5 +3.0
03 18.04 ЮЗ 6-11
{11}
10 км {ливн. осадки} 10/4 600 м
[Cb cap Ac As]
+4.4 +2.4 87 -1 0 994.1 984.4
06 18.04 ЮЗ 4
{11}
20 км {ливн. осадки} 10/3 600 м
[Cb cap Ac As]
+2.8 -0.4 79 -2 -1 997.2 987.4
09 18.04 З 4 10 км 10/0
[As op]
+1.8 -2.5 73 -3 -3 999.8 990.0 +5.2 3
12 18.04 СЗ 3-12
{12}
10 км в посл. час снег {дождь} 10/0
[As op]
+1.5 -5.1 61 -2 -2 1002.7 992.8
15 18.04 СЗ 2
{12}
10 км 10/0
[As trans]
+1.6 -8.0 49 -1 -1 1003.8 993.9
18 18.04 З 3 900 м 8/1 200 м
[Cb calv Cs]
+0.5 -7.9 53 -3 -3 1004.3 994.4
21 18.04 СЗ 3 50 км 8/0
[Ac lent Cc]
-0.5 -8.3 56 -5 -4 1005.2 995.2 -0.5 0.0
00 19.04 СЗ 4
{10}
50 км 9/3 600 м
[Cb cap As trans Ci fib]
+1.1 -7.8 51 -3 -1 1007.2 997.3
03 19.04 СЗ 5-12
{12}
50 км 10/8 600 м
[Cb cap As trans]
+3.2 -7.1 47 -1 -1 1009.2 999.3
06 19.04 СЗ 4-12
{12}
50 км 9/9 600 м
[Cb cap]
+5.7 -6.8 40 +3 +3 1009.7 999.9
09 19.04 СЗ 5-10
{12}
50 км 6/5 600 м
[Cb cap Ac lent]
+4.4 -7.7 41 0 +1 1011.6 1001.7 +5.9
12 19.04 СЗ 2
{10}
50 км ясно +1.3 -6.3 57 -2 -2 1012.9 1002.9
15 19.04 СЗ 1 50 км ясно -1.9 -6.4 71 -4 -4 1013.1 1002.9
18 19.04 ЮЗ 1 50 км ясно -5.8 -7.2 90 -8 -8 1013.1 1002.8
21 19.04 СВ 1 50 км ясно -3.8 -6.7 80 -6 -5 1012.8 1002.6 -6.7
00 20.04 ЮВ 1 50 км ясно +4.5 -6.2 46 +4 +13 опасность
простуды
1012.6 1002.7
03 20.04 ЮВ 2 50 км 8/0
[Ac lent Ci sp]
+8.6 -8.2 30 +8 +17 1010.1 1000.4
06 20.04 ЮВ 4 50 км 9/0
[Ac lent Ci sp]
+10.5 -7.2 28 +9 +13 1007.3 997.6
09 20.04 ЮВ 4 20 км 9/4 600 м
[Cb cap Ac trans]
+8.7 -6.9 32 +6 +7 1005.7 996.0 +10.7
12 20.04 СВ 2 20 км 8/0
[Ac trans]
+5.4 -4.4 49 +4 +4 1006.5 996.7
15 20.04 СВ 2 20 км 8/0
[Ac trans]
+4.3 -3.0 59 +2 +2 1006.1 996.2
18 20.04 З 1 20 км ясно -1.2 -3.4 85 -3 -3 1005.9 995.9
21 20.04 штиль 0 50 км ясно -2.3 -3.5 91 -4 -3 1007.2 997.1 -3.0
00 21.04 З 3 50 км 1/1 1000 м
[Cu hum]
+8.2 -4.7 40 +6 +12 1007.9 998.2
03 21.04 СЗ 4
{12}
50 км 1/1 1000 м
[Cu hum]
+10.8 -12.8 18 +9 +18 1008.0 998.4
06 21.04 З 6-11
{11}
50 км 3/3 1000 м
[Cu med, cong]
+11.9 -13.1 16 +10 +12 1008.0 998.4
09 21.04 СЗ 3
{11}
50 км 1/1 1000 м
[Cu hum]
+10.1 -13.0 18 +9 +9 1009.6 999.9 +12.4
12 21.04 СЗ 2 50 км ясно +5.2 -11.3 29 +4 +4 1012.2 1002.3
15 21.04 ЮЗ 1 50 км ясно -3.3 -7.4 73 -5 -5 1013.4 1003.2
18 21.04 С 1 50 км ясно -4.9 -7.7 81 -7 -7 1014.6 1004.3
21 21.04 штиль 0 50 км ясно -3.4 -6.3 80 -4 -4 1015.8 1005.6 -6.3
00 22.04 ЮЗ 1 50 км ясно +9.2 -9.2 26 +9 +19 опасность
простуды
1015.7 1005.9
03 22.04 С 2 50 км ясно +13.7 -12.8 15 +14 +28 опасность
простуды
1014.4 1004.8
06 22.04 З 5 50 км 8/1 1000 м
[Cu hum Ac lent Ci fib]
+14.8 -11.9 15 +14 +16 1012.6 1003.1
09 22.04 Ю 4 20 км 6/0
[Ac lent Ci fib]
+13.9 -11.5 16 +13 +13 1011.4 1001.8 +15.4
12 22.04 ЮВ 2 10 км 4/0
[Ac lent]
+8.6 -9.1 28 +8 +8 1011.7 1002.0
15 22.04 СВ 2 10 км 10/0
[As trans]
+4.8 -5.3 48 +3 +3 1010.4 1000.5
18 22.04 СВ 3 10 км 10/0
[As op]
+4.2 -4.2 54 +1 +1 1008.4 998.6
21 22.04 СВ 1 4000 м слаб. ливневой дождь 10/10 600 м
[Cb cap]
+3.9 -2.6 63 +3 +3 1007.7 997.8 +3.8

 

Местоположение метеостанции Биробиджан (Еврейская автономная область, Россия): широта 48.73 долгота 132.90 высота над уровнем моря 77 м.

В архиве по умолчанию представлена погода в Биробиджане за последнюю неделю. Архивные данные за месяц целиком и за предыдущие месяцы, начиная с января 2011 года, Вы можете получить, выбрав интересующий диапазон дат из раскрывающегося списка и нажав кнопку "Ввод!".


*Определитесь, кто Вы:
робот инопланетянин человек

Внимание! Время в таблицах - всемирное. Для получения местного времени необходимо прибавить поправку, которая равна 10 ч.

Смотрите также архив погоды в соседних городах и на ближайших метеорологических станциях:

Погода в Смидовиче (Еврейская автономная область, Россия) (68 км)
Погода в Урми (Хабаровский край, Россия) (78 км)
Погода в Ленинское (Еврейская автономная область, Россия) (90 км)
Погода в Хабаровск Центре (Еврейская автономная область, Россия) (91 км)
Погода в Биджане (Еврейская автономная область, Россия) (115 км)
Погода в Облучье (Еврейская автономная область, Россия) (142 км)
Погода в Бычихе (Хабаровский край, Россия) (149 км)
Погода в Верховье Урми (Хабаровский край, Россия) (153 км)
Погода на Хабаровск Мосту (Хабаровский край, Россия) (157 км)
Погода в Хабаровске АМС (Хабаровский край, Россия) (159 км)

Пояснения к столбцам:

Ветер - указаны скорость ветра в м/с - средняя за 10 мин, порывы в срок и между сроками (в фигурных скобках) и направление, откуда дует ветер: С - северный, СВ - северо-восточный, В - восточный, ЮВ - юго-восточный, Ю - южный, ЮЗ - юго-западный, З - западный, СЗ - северо-западный.
Видимость - горизонтальная дальность видимости в метрах или километрах. При видимости от 1 до 10 км при отсутствии осадков обычно наблюдается дымка, при ухудшении видимости до 1 км и менее - туман. В сухую погоду видимость может ухудшаться дымом, пылью или мглою.
Явления - указаны атмосферные явления, наблюдавшиеся в срок или в последний час перед сроком; фигурными скобками обозначены явления, наблюдавшиеся между сроками (за 1-3 часа до срока); квадратными скобками обозначены град или гололедные отложения с указанием их диаметра в мм.
Облачность - указаны через наклонную черту общая и нижняя облачность в баллах и высота нижней границы облаков в метрах; квадратными скобками обозначены формы облаков: Ci - перистые, Cs - перисто-слоистые, Cc - перисто-кучевые, Ac - высококучевые, As - высокослоистые, Sc - слоисто-кучевые, Ns - слоисто-дождевые, Cu - кучевые, Cb - кучево-дождевые. Подробнее классификацию облаков см. в Атласе облаков (PDF).
T - Температура воздуха - температура, измеренная на высоте 2 м над землей.
Td - Температура точки росы - температура, при понижении до которой содержащийся в воздухе водяной пар достигнет насыщения.
f - Относительная влажность воздуха - влажноcть воздуха, измеренная на высоте 2 м над землей.
Te - Эффективная температура - температура, которую ощущает одетый по сезону человек в тени. Характеристика душности погоды. При расчете учитывается влияние влажности воздуха и скорости ветра на теплоощущения человека.
Tes - Эффективная температура на солнце - температура, которую ощущает человек, с поправкой на солнечный нагрев. Характеристика знойности погоды. Зависит от высоты солнца над горизонтом, облачности и скорости ветра. Ночью, в пасмурную погоду, а также при ветре 12 м/с и более поправка равна нулю.
P - Атмосферное давление - приведенное к уровню моря атмосферное давление.
Po - Атмосферное давление - измеренное на уровне метеостанции атмосферное давление.
Tmin - Минимальная температура - минимум температуры воздуха на высоте 2 м над землей.
Tmax - Максимальная температура - максимум температуры воздуха на высоте 2 м над землей.
R - Количество осадков - Количество выпавших осадков за период времени, мм. При наведении курсора мыши на число - период времени, за который выпало указанное количество осадков.
R24 - Количество осадков - Количество выпавших осадков за 24 часа, мм.
S - Снежный покров - Высота снежного покрова, см. При наведении курсора мыши на число - состояние снежного покрова и степень покрытия местности в баллах.